878  
ASUS41 KPHI 231412  
RWRPHI  
 
REGIONAL WEATHER ROUNDUP  
NATIONAL WEATHER SERVICE MOUNT HOLLY NJ  
900 AM EST THU NOV 23 2017  
 
NOTE: "FAIR" INDICATES FEW OR NO CLOUDS BELOW 12,000 FEET WITH NO  
SIGNIFICANT WEATHER AND/OR S TO VISIBILITY
.  
 
* = STATION DOES NOT REPORT PRECIPITATION (E.G. RAIN, SNOW, ETC.)  
OR FOG.
 
 
NJZ015>026-231500-  
SOUTHERN NEW JERSEY  
 
CITY SKY/WX TMP DP RH WIND PRES REMARKS
 
POMONA CLOUDY 34 22 61 NW10 30.16S WCI 26  
WILDWOOD* MOSUNNY 36 21 54 N12G17 30.17S WCI 28  
MILLVILLE CLOUDY 33 22 63 NW6 30.17S WCI 28  
WRIGHTSTOWN SUNNY 33 20 57 NW7 30.13S WCI 27  
MOUNT HOLLY SUNNY 33 19 56 VRB7 30.16S WCI 27  
TRENTON SUNNY 32 19 58 W10 30.14S WCI 24  
 

 
NJZ001>014-231500-  
NORTHERN NEW JERSEY  
 
CITY SKY/WX TMP DP RH WIND PRES REMARKS
 
SUSSEX SUNNY 33 20 58 VRB6 30.10F WCI 28  
ANDOVER* N/A 31 19 61 VRB6 30.11S WCI 25  
MORRISTOWN SUNNY 34 19 55 N5 30.13S WCI 30  
NEWARK MOSUNNY 35 19 52 NW10 30.13S WCI 27  
TETERBORO SUNNY 35 19 52 NW6 30.12S WCI 30  
CALDWELL SUNNY 33 19 56 VRB3 30.13S  
SOMERVILLE SUNNY 34 21 59 NW6 30.12F WCI 29  
ALLAIRE* SUNNY 33 20 58 W8 30.14S WCI 26  
TOMS RIVER* SUNNY 33 20 58 NW12 30.15S WCI 24  
 

 
PAZ043-044-047-054-055-060>062-066>071-231500-  
EASTERN PENNSYLVANIA  
 
CITY SKY/WX TMP DP RH WIND PRES REMARKS
 
PHILADELPHIA MOSUNNY 34 18 52 N10 30.18S WCI 26  
NORTH PHILA SUNNY 35 19 52 NW10 30.18S WCI 27  
BLUE BELL* SUNNY 32 19 59 NW7 30.18S WCI 26  
DOYLESTOWN SUNNY 32 18 56 NW9 30.14S WCI 24  
QUAKERTOWN* SUNNY 32 18 55 N6 30.15S WCI 26  
PERKASIE* FAIR 32 18 55 NW7 30.14F WCI 26  
POTTSTOWN SUNNY 31 17 56 N10 30.18S WCI 22  
LANCASTER SUNNY 32 24 72 NW5 30.16F WCI 27  
COATESVILLE SUNNY 32 19 59 N7 30.15F WCI 26  
READING SUNNY 33 22 63 VRB7 30.16S WCI 27  
ALLENTOWN SUNNY 32 18 56 NW7 30.15S WCI 26  
MOUNT POCONO SUNNY 25 17 72 NW15G21 30.03F WCI 13  
HAZLETON SUNNY 30 18 59 NW7 30.11R WCI 23  
LEHIGHTON FAIR 32 19 59 W6 30.16S WCI 26  
WILKES BARRE CLOUDY 30 18 60 NW7 30.12R WCI 23  
 

 
DEZALL-MDZ008-012-015-019-020-231500-  
DELAWARE AND EASTERN MARYLAND  
 
CITY SKY/WX TMP DP RH WIND PRES REMARKS
 
WILMINGTON SUNNY 34 22 61 NW6 30.19R WCI 29  
DOVER CLOUDY 35 26 69 NW10 30.18R WCI 28  
GEORGETOWN CLOUDY 36 22 56 VRB6 30.19R WCI 31  
EASTON MOSUNNY 37 25 60 N6 30.23R WCI 33  
ABERDEEN SUNNY 33 24 68 CALM 30.20R  
PATUXENT MOSUNNY 39 24 55 NW14 30.20S WCI 31  
OCEAN CITY MOSUNNY 35 25 66 NW9 30.19R WCI 28  
WALLOPS ISLAND MOSUNNY 35 26 69 N8 30.19S WCI 29  
CAMBRIDGE SUNNY 37 25 60 N8 30.20S WCI 31  
SALISBURY MOSUNNY 35 24 64 N9 30.18F WCI 28  
 

 
PAZ001-021-NYZ056-072-MDZ011-DCZ001-231500-  
OTHER NEARBY LOCATIONS  
 
CITY SKY/WX TMP DP RH WIND PRES REMARKS
 
HARRISBURG SUNNY 35 22 58 CALM 30.16F  
STATE COLLEGE CLOUDY 30 19 64 W6 30.12S WCI 24  
WILLIAMSPORT CLOUDY 34 19 54 CALM 30.15S  
BINGHAMTON CLOUDY 26 17 68 NW6 30.07S WCI 19  
NEW YORK CITY SUNNY 33 19 56 NW3 30.14R  
BALTIMORE MOSUNNY 34 25 69 W5 30.19S WCI 30  
WASHINGTON DC CLOUDY 35 22 58 NW8 30.22R WCI 29  
 

 
 
 
CLICK HERE TO GO TO PREVIOUS BULLETINS.

The Nexlab PA Page
The Nexlab NJ Page
The Nexlab DE Page
The Nexlab MD Page Main Text Page